owner,sensor,date,latitude,longitude,vertical_datum,sea_water_practical_salinity,qcFlag 
NERRS,ioos:station:NOAA.NERRS:gndbcwq:1,2015-10-01T00:00:00Z,30.3836,-88.4364,0.66,22.2,1111122 
NERRS,ioos:station:NOAA.NERRS:gndbcwq:1,2015-10-01T01:00:00Z,30.3836,-88.4364,0.71,21.2,1111122 
NERRS,ioos:station:NOAA.NERRS:gndbcwq:1,2015-10-01T02:00:00Z,30.3836,-88.4364,0.75,24.8,1111122 
NERRS,ioos:station:NOAA.NERRS:gndbcwq:1,2015-10-01T03:00:00Z,30.3836,-88.4364,0.79,24.2,1111122 
NERRS,ioos:station:NOAA.NERRS:gndbcwq:1,2015-10-01T04:00:00Z,30.3836,-88.4364,0.78,25.2,1111122 
NERRS,ioos:station:NOAA.NERRS:gndbcwq:1,2015-10-01T05:00:00Z,30.3836,-88.4364,0.74,25.1,1111122 
NERRS,ioos:station:NOAA.NERRS:gndbcwq:1,2015-10-01T06:00:00Z,30.3836,-88.4364,0.7,24.4,1111122 
NERRS,ioos:station:NOAA.NERRS:gndbcwq:1,2015-10-01T07:00:00Z,30.3836,-88.4364,0.65,21.8,1111122 
NERRS,ioos:station:NOAA.NERRS:gndbcwq:1,2015-10-01T08:00:00Z,30.3836,-88.4364,0.62,5.0,1111122 
NERRS,ioos:station:NOAA.NERRS:gndbcwq:1,2015-10-01T09:00:00Z,30.3836,-88.4364,0.59,4.9,1111122 
NERRS,ioos:station:NOAA.NERRS:gndbcwq:1,2015-10-01T10:00:00Z,30.3836,-88.4364,0.52,4.9,1111122 
NERRS,ioos:station:NOAA.NERRS:gndbcwq:1,2015-10-01T11:00:00Z,30.3836,-88.4364,0.43,5.0,1111122 
NERRS,ioos:station:NOAA.NERRS:gndbcwq:1,2015-10-01T12:00:00Z,30.3836,-88.4364,0.36,5.1,1111122 
NERRS,ioos:station:NOAA.NERRS:gndbcwq:1,2015-10-01T13:00:00Z,30.3836,-88.4364,0.34,4.4,1111122 
NERRS,ioos:station:NOAA.NERRS:gndbcwq:1,2015-10-01T14:00:00Z,30.3836,-88.4364,0.35,4.4,1111122 
NERRS,ioos:station:NOAA.NERRS:gndbcwq:1,2015-10-01T15:00:00Z,30.3836,-88.4364,0.37,4.3,1111122 
NERRS,ioos:station:NOAA.NERRS:gndbcwq:1,2015-10-01T16:00:00Z,30.3836,-88.4364,0.36,4.2,1111122 
NERRS,ioos:station:NOAA.NERRS:gndbcwq:1,2015-10-01T17:00:00Z,30.3836,-88.4364,0.4,14.1,1111122 
NERRS,ioos:station:NOAA.NERRS:gndbcwq:1,2015-10-01T18:00:00Z,30.3836,-88.4364,0.4,4.1,1111122 
NERRS,ioos:station:NOAA.NERRS:gndbcwq:1,2015-10-01T19:00:00Z,30.3836,-88.4364,0.4,19.0,1111122 
NERRS,ioos:station:NOAA.NERRS:gndbcwq:1,2015-10-01T20:00:00Z,30.3836,-88.4364,0.43,18.2,1111122 
NERRS,ioos:station:NOAA.NERRS:gndbcwq:1,2015-10-01T21:00:00Z,30.3836,-88.4364,0.48,21.2,1111122 
NERRS,ioos:station:NOAA.NERRS:gndbcwq:1,2015-10-01T22:00:00Z,30.3836,-88.4364,0.47,21.5,1111122 
NERRS,ioos:station:NOAA.NERRS:gndbcwq:1,2015-10-01T23:00:00Z,30.3836,-88.4364,0.47,22.2,1111122 
NERRS,ioos:station:NOAA.NERRS:gndbcwq:1,2015-10-02T00:00:00Z,30.3836,-88.4364,0.51,21.8,1111122 
NERRS,ioos:station:NOAA.NERRS:gndbcwq:1,2015-10-02T01:00:00Z,30.3836,-88.4364,0.56,24.0,1111122 
NERRS,ioos:station:NOAA.NERRS:gndbcwq:1,2015-10-02T02:00:00Z,30.3836,-88.4364,0.61,21.5,1111122 
NERRS,ioos:station:NOAA.NERRS:gndbcwq:1,2015-10-02T03:00:00Z,30.3836,-88.4364,0.66,23.8,1111122 
NERRS,ioos:station:NOAA.NERRS:gndbcwq:1,2015-10-02T04:00:00Z,30.3836,-88.4364,0.7,25.3,1111122 
NERRS,ioos:station:NOAA.NERRS:gndbcwq:1,2015-10-02T05:00:00Z,30.3836,-88.4364,0.69,25.1,1111122 
NERRS,ioos:station:NOAA.NERRS:gndbcwq:1,2015-10-02T06:00:00Z,30.3836,-88.4364,0.65,25.7,1111122 
NERRS,ioos:station:NOAA.NERRS:gndbcwq:1,2015-10-02T07:00:00Z,30.3836,-88.4364,0.59,25.1,1111122 
NERRS,ioos:station:NOAA.NERRS:gndbcwq:1,2015-10-02T08:00:00Z,30.3836,-88.4364,0.56,20.9,1111122 
NERRS,ioos:station:NOAA.NERRS:gndbcwq:1,2015-10-02T09:00:00Z,30.3836,-88.4364,0.54,23.5,1111122 
NERRS,ioos:station:NOAA.NERRS:gndbcwq:1,2015-10-02T10:00:00Z,30.3836,-88.4364,0.49,17.9,1111122 
NERRS,ioos:station:NOAA.NERRS:gndbcwq:1,2015-10-02T11:00:00Z,30.3836,-88.4364,0.4,7.6,1111122 
NERRS,ioos:station:NOAA.NERRS:gndbcwq:1,2015-10-02T12:00:00Z,30.3836,-88.4364,0.29,7.9,1111122 
NERRS,ioos:station:NOAA.NERRS:gndbcwq:1,2015-10-02T13:00:00Z,30.3836,-88.4364,0.24,8.4,1111122 
NERRS,ioos:station:NOAA.NERRS:gndbcwq:1,2015-10-02T14:00:00Z,30.3836,-88.4364,0.2,9.2,1111122 
NERRS,ioos:station:NOAA.NERRS:gndbcwq:1,2015-10-02T15:00:00Z,30.3836,-88.4364,0.19,9.6,1111122 
NERRS,ioos:station:NOAA.NERRS:gndbcwq:1,2015-10-02T16:00:00Z,30.3836,-88.4364,0.2,9.6,1111122 
NERRS,ioos:station:NOAA.NERRS:gndbcwq:1,2015-10-02T17:00:00Z,30.3836,-88.4364,0.23,12.6,1111122 
NERRS,ioos:station:NOAA.NERRS:gndbcwq:1,2015-10-02T18:00:00Z,30.3836,-88.4364,0.19,9.5,1111122 
NERRS,ioos:station:NOAA.NERRS:gndbcwq:1,2015-10-02T19:00:00Z,30.3836,-88.4364,0.18,9.4,1111122 
NERRS,ioos:station:NOAA.NERRS:gndbcwq:1,2015-10-02T20:00:00Z,30.3836,-88.4364,0.19,9.0,1111122 
NERRS,ioos:station:NOAA.NERRS:gndbcwq:1,2015-10-02T21:00:00Z,30.3836,-88.4364,0.23,14.3,1111122 
NERRS,ioos:station:NOAA.NERRS:gndbcwq:1,2015-10-02T22:00:00Z,30.3836,-88.4364,0.28,14.4,1111122 
NERRS,ioos:station:NOAA.NERRS:gndbcwq:1,2015-10-02T23:00:00Z,30.3836,-88.4364,0.28,9.8,1111122 
NERRS,ioos:station:NOAA.NERRS:gndbcwq:1,2015-10-03T00:00:00Z,30.3836,-88.4364,0.3,18.7,1111122 
NERRS,ioos:station:NOAA.NERRS:gndbcwq:1,2015-10-03T01:00:00Z,30.3836,-88.4364,0.36,14.6,1111122 
NERRS,ioos:station:NOAA.NERRS:gndbcwq:1,2015-10-03T02:00:00Z,30.3836,-88.4364,0.46,16.4,1111122 
NERRS,ioos:station:NOAA.NERRS:gndbcwq:1,2015-10-03T03:00:00Z,30.3836,-88.4364,0.55,16.7,1111122 
NERRS,ioos:station:NOAA.NERRS:gndbcwq:1,2015-10-03T04:00:00Z,30.3836,-88.4364,0.57,19.8,1111122 
NERRS,ioos:station:NOAA.NERRS:gndbcwq:1,2015-10-03T05:00:00Z,30.3836,-88.4364,0.59,20.1,1111122 
NERRS,ioos:station:NOAA.NERRS:gndbcwq:1,2015-10-03T06:00:00Z,30.3836,-88.4364,0.6,23.5,1111122 
NERRS,ioos:station:NOAA.NERRS:gndbcwq:1,2015-10-03T07:00:00Z,30.3836,-88.4364,0.59,23.5,1111122 
NERRS,ioos:station:NOAA.NERRS:gndbcwq:1,2015-10-03T08:00:00Z,30.3836,-88.4364,0.59,24.0,1111122 
NERRS,ioos:station:NOAA.NERRS:gndbcwq:1,2015-10-03T09:00:00Z,30.3836,-88.4364,0.55,24.0,1111122 
NERRS,ioos:station:NOAA.NERRS:gndbcwq:1,2015-10-03T10:00:00Z,30.3836,-88.4364,0.48,16.0,1111122 
NERRS,ioos:station:NOAA.NERRS:gndbcwq:1,2015-10-03T11:00:00Z,30.3836,-88.4364,0.41,13.3,1111122 
NERRS,ioos:station:NOAA.NERRS:gndbcwq:1,2015-10-03T12:00:00Z,30.3836,-88.4364,0.35,12.0,1111122 
NERRS,ioos:station:NOAA.NERRS:gndbcwq:1,2015-10-03T13:00:00Z,30.3836,-88.4364,0.29,11.7,1111122 
NERRS,ioos:station:NOAA.NERRS:gndbcwq:1,2015-10-03T14:00:00Z,30.3836,-88.4364,0.24,11.5,1111122 
NERRS,ioos:station:NOAA.NERRS:gndbcwq:1,2015-10-03T15:00:00Z,30.3836,-88.4364,0.21,11.8,1111122 
NERRS,ioos:station:NOAA.NERRS:gndbcwq:1,2015-10-03T16:00:00Z,30.3836,-88.4364,0.19,12.1,1111122 
NERRS,ioos:station:NOAA.NERRS:gndbcwq:1,2015-10-03T17:00:00Z,30.3836,-88.4364,0.17,12.1,1111122 
NERRS,ioos:station:NOAA.NERRS:gndbcwq:1,2015-10-03T18:00:00Z,30.3836,-88.4364,0.17,12.4,1111122 
NERRS,ioos:station:NOAA.NERRS:gndbcwq:1,2015-10-03T19:00:00Z,30.3836,-88.4364,0.14,12.3,1111122 
NERRS,ioos:station:NOAA.NERRS:gndbcwq:1,2015-10-03T20:00:00Z,30.3836,-88.4364,0.12,11.8,1111122 
NERRS,ioos:station:NOAA.NERRS:gndbcwq:1,2015-10-03T21:00:00Z,30.3836,-88.4364,0.12,11.8,1111122 
NERRS,ioos:station:NOAA.NERRS:gndbcwq:1,2015-10-03T22:00:00Z,30.3836,-88.4364,0.17,15.7,1111122 
NERRS,ioos:station:NOAA.NERRS:gndbcwq:1,2015-10-03T23:00:00Z,30.3836,-88.4364,0.23,15.9,1111122 
NERRS,ioos:station:NOAA.NERRS:gndbcwq:1,2015-10-04T00:00:00Z,30.3836,-88.4364,0.28,16.4,1111122 
NERRS,ioos:station:NOAA.NERRS:gndbcwq:1,2015-10-04T01:00:00Z,30.3836,-88.4364,0.32,17.1,1111122 
NERRS,ioos:station:NOAA.NERRS:gndbcwq:1,2015-10-04T02:00:00Z,30.3836,-88.4364,0.37,17.7,1111122 
NERRS,ioos:station:NOAA.NERRS:gndbcwq:1,2015-10-04T03:00:00Z,30.3836,-88.4364,0.41,18.4,1111122 
NERRS,ioos:station:NOAA.NERRS:gndbcwq:1,2015-10-04T04:00:00Z,30.3836,-88.4364,0.46,18.7,1111122 
NERRS,ioos:station:NOAA.NERRS:gndbcwq:1,2015-10-04T05:00:00Z,30.3836,-88.4364,0.5,19.7,1111122 
NERRS,ioos:station:NOAA.NERRS:gndbcwq:1,2015-10-04T06:00:00Z,30.3836,-88.4364,0.53,21.0,1111122 
NERRS,ioos:station:NOAA.NERRS:gndbcwq:1,2015-10-04T07:00:00Z,30.3836,-88.4364,0.56,23.9,1111122 
NERRS,ioos:station:NOAA.NERRS:gndbcwq:1,2015-10-04T08:00:00Z,30.3836,-88.4364,0.56,24.5,1111122 
NERRS,ioos:station:NOAA.NERRS:gndbcwq:1,2015-10-04T09:00:00Z,30.3836,-88.4364,0.54,24.5,1111122 
NERRS,ioos:station:NOAA.NERRS:gndbcwq:1,2015-10-04T10:00:00Z,30.3836,-88.4364,0.48,18.9,1111122 
NERRS,ioos:station:NOAA.NERRS:gndbcwq:1,2015-10-04T11:00:00Z,30.3836,-88.4364,0.44,21.5,1111122 
NERRS,ioos:station:NOAA.NERRS:gndbcwq:1,2015-10-04T12:00:00Z,30.3836,-88.4364,0.43,21.7,1111122 
NERRS,ioos:station:NOAA.NERRS:gndbcwq:1,2015-10-04T13:00:00Z,30.3836,-88.4364,0.38,20.3,1111122 
NERRS,ioos:station:NOAA.NERRS:gndbcwq:1,2015-10-04T14:00:00Z,30.3836,-88.4364,0.34,13.7,1111122 
NERRS,ioos:station:NOAA.NERRS:gndbcwq:1,2015-10-04T15:00:00Z,30.3836,-88.4364,0.25,13.5,1111122 
NERRS,ioos:station:NOAA.NERRS:gndbcwq:1,2015-10-04T16:00:00Z,30.3836,-88.4364,0.2,13.9,1111122 
NERRS,ioos:station:NOAA.NERRS:gndbcwq:1,2015-10-04T17:00:00Z,30.3836,-88.4364,0.16,14.3,1111122 
NERRS,ioos:station:NOAA.NERRS:gndbcwq:1,2015-10-04T18:00:00Z,30.3836,-88.4364,0.16,14.7,1111122 
NERRS,ioos:station:NOAA.NERRS:gndbcwq:1,2015-10-04T19:00:00Z,30.3836,-88.4364,0.16,14.3,1111122 
NERRS,ioos:station:NOAA.NERRS:gndbcwq:1,2015-10-04T20:00:00Z,30.3836,-88.4364,0.17,14.4,1111122 
NERRS,ioos:station:NOAA.NERRS:gndbcwq:1,2015-10-04T21:00:00Z,30.3836,-88.4364,0.19,15.6,1111122 
NERRS,ioos:station:NOAA.NERRS:gndbcwq:1,2015-10-04T23:00:00Z,30.3836,-88.4364,0.34,19.0,1111122 
NERRS,ioos:station:NOAA.NERRS:gndbcwq:1,2015-10-05T00:00:00Z,30.3836,-88.4364,0.38,19.7,1111122 
NERRS,ioos:station:NOAA.NERRS:gndbcwq:1,2015-10-05T01:00:00Z,30.3836,-88.4364,0.38,19.6,1111122 
NERRS,ioos:station:NOAA.NERRS:gndbcwq:1,2015-10-05T02:00:00Z,30.3836,-88.4364,0.42,20.6,1111122 
NERRS,ioos:station:NOAA.NERRS:gndbcwq:1,2015-10-05T03:00:00Z,30.3836,-88.4364,0.44,21.8,1111122 
NERRS,ioos:station:NOAA.NERRS:gndbcwq:1,2015-10-05T04:00:00Z,30.3836,-88.4364,0.43,19.8,1111122 
NERRS,ioos:station:NOAA.NERRS:gndbcwq:1,2015-10-05T05:00:00Z,30.3836,-88.4364,0.48,21.5,1111122 
NERRS,ioos:station:NOAA.NERRS:gndbcwq:1,2015-10-05T06:00:00Z,30.3836,-88.4364,0.5,22.6,1111122 
NERRS,ioos:station:NOAA.NERRS:gndbcwq:1,2015-10-05T07:00:00Z,30.3836,-88.4364,0.51,23.1,1111122 
NERRS,ioos:station:NOAA.NERRS:gndbcwq:1,2015-10-05T08:00:00Z,30.3836,-88.4364,0.52,24.2,1111122 
NERRS,ioos:station:NOAA.NERRS:gndbcwq:1,2015-10-05T09:00:00Z,30.3836,-88.4364,0.5,24.4,1111122 
NERRS,ioos:station:NOAA.NERRS:gndbcwq:1,2015-10-05T10:00:00Z,30.3836,-88.4364,0.49,24.2,1111122 
NERRS,ioos:station:NOAA.NERRS:gndbcwq:1,2015-10-05T11:00:00Z,30.3836,-88.4364,0.49,25.5,1111122 
NERRS,ioos:station:NOAA.NERRS:gndbcwq:1,2015-10-05T12:00:00Z,30.3836,-88.4364,0.47,25.0,1111122 
NERRS,ioos:station:NOAA.NERRS:gndbcwq:1,2015-10-05T13:00:00Z,30.3836,-88.4364,0.42,16.3,1111122 
NERRS,ioos:station:NOAA.NERRS:gndbcwq:1,2015-10-05T14:00:00Z,30.3836,-88.4364,0.38,22.7,1111122 
NERRS,ioos:station:NOAA.NERRS:gndbcwq:1,2015-10-05T15:00:00Z,30.3836,-88.4364,0.36,22.5,1111122 
NERRS,ioos:station:NOAA.NERRS:gndbcwq:1,2015-10-05T16:00:00Z,30.3836,-88.4364,0.32,15.7,1111122 
NERRS,ioos:station:NOAA.NERRS:gndbcwq:1,2015-10-05T17:00:00Z,30.3836,-88.4364,0.3,21.5,1111122 
NERRS,ioos:station:NOAA.NERRS:gndbcwq:1,2015-10-05T18:00:00Z,30.3836,-88.4364,0.28,22.0,1111122 
NERRS,ioos:station:NOAA.NERRS:gndbcwq:1,2015-10-05T19:00:00Z,30.3836,-88.4364,0.23,16.2,1111122 
NERRS,ioos:station:NOAA.NERRS:gndbcwq:1,2015-10-05T20:00:00Z,30.3836,-88.4364,0.23,23.6,1111122 
NERRS,ioos:station:NOAA.NERRS:gndbcwq:1,2015-10-05T21:00:00Z,30.3836,-88.4364,0.27,23.3,1111122 
NERRS,ioos:station:NOAA.NERRS:gndbcwq:1,2015-10-05T22:00:00Z,30.3836,-88.4364,0.32,21.4,1111122 
NERRS,ioos:station:NOAA.NERRS:gndbcwq:1,2015-10-05T23:00:00Z,30.3836,-88.4364,0.35,19.8,1111122 
NERRS,ioos:station:NOAA.NERRS:gndbcwq:1,2015-10-06T00:00:00Z,30.3836,-88.4364,0.37,20.6,1111122 
NERRS,ioos:station:NOAA.NERRS:gndbcwq:1,2015-10-06T01:00:00Z,30.3836,-88.4364,0.44,21.4,1111122 
NERRS,ioos:station:NOAA.NERRS:gndbcwq:1,2015-10-06T02:00:00Z,30.3836,-88.4364,0.51,21.2,1111122 
NERRS,ioos:station:NOAA.NERRS:gndbcwq:1,2015-10-06T03:00:00Z,30.3836,-88.4364,0.56,22.1,1111122 
NERRS,ioos:station:NOAA.NERRS:gndbcwq:1,2015-10-06T04:00:00Z,30.3836,-88.4364,0.59,22.3,1111122 
NERRS,ioos:station:NOAA.NERRS:gndbcwq:1,2015-10-06T05:00:00Z,30.3836,-88.4364,0.61,23.6,1111122 
NERRS,ioos:station:NOAA.NERRS:gndbcwq:1,2015-10-06T06:00:00Z,30.3836,-88.4364,0.63,24.6,1111122 
NERRS,ioos:station:NOAA.NERRS:gndbcwq:1,2015-10-06T07:00:00Z,30.3836,-88.4364,0.65,25.1,1111122 
NERRS,ioos:station:NOAA.NERRS:gndbcwq:1,2015-10-06T08:00:00Z,30.3836,-88.4364,0.67,25.6,1111122 
NERRS,ioos:station:NOAA.NERRS:gndbcwq:1,2015-10-06T09:00:00Z,30.3836,-88.4364,0.68,27.0,1111122 
NERRS,ioos:station:NOAA.NERRS:gndbcwq:1,2015-10-06T10:00:00Z,30.3836,-88.4364,0.67,27.3,1111122 
NERRS,ioos:station:NOAA.NERRS:gndbcwq:1,2015-10-06T11:00:00Z,30.3836,-88.4364,0.64,27.5,1111122 
NERRS,ioos:station:NOAA.NERRS:gndbcwq:1,2015-10-06T12:00:00Z,30.3836,-88.4364,0.62,25.4,1111122 
NERRS,ioos:station:NOAA.NERRS:gndbcwq:1,2015-10-06T13:00:00Z,30.3836,-88.4364,0.62,25.9,1111122 
NERRS,ioos:station:NOAA.NERRS:gndbcwq:1,2015-10-06T14:00:00Z,30.3836,-88.4364,0.6,24.8,1111122 
NERRS,ioos:station:NOAA.NERRS:gndbcwq:1,2015-10-06T15:00:00Z,30.3836,-88.4364,0.54,22.9,1111122 
NERRS,ioos:station:NOAA.NERRS:gndbcwq:1,2015-10-06T16:00:00Z,30.3836,-88.4364,0.47,22.6,1111122 
NERRS,ioos:station:NOAA.NERRS:gndbcwq:1,2015-10-06T17:00:00Z,30.3836,-88.4364,0.43,23.1,1111122 
NERRS,ioos:station:NOAA.NERRS:gndbcwq:1,2015-10-06T22:00:00Z,30.3836,-88.4364,0.44,20.7,1111122 
NERRS,ioos:station:NOAA.NERRS:gndbcwq:1,2015-10-06T23:00:00Z,30.3836,-88.4364,0.44,21.2,1111122 
NERRS,ioos:station:NOAA.NERRS:gndbcwq:1,2015-10-07T00:00:00Z,30.3836,-88.4364,0.45,21.6,1111122 
NERRS,ioos:station:NOAA.NERRS:gndbcwq:1,2015-10-07T01:00:00Z,30.3836,-88.4364,0.5,22.8,1111122 
NERRS,ioos:station:NOAA.NERRS:gndbcwq:1,2015-10-07T02:00:00Z,30.3836,-88.4364,0.54,23.0,1111122 
NERRS,ioos:station:NOAA.NERRS:gndbcwq:1,2015-10-07T03:00:00Z,30.3836,-88.4364,0.58,24.0,1111122 
NERRS,ioos:station:NOAA.NERRS:gndbcwq:1,2015-10-07T04:00:00Z,30.3836,-88.4364,0.6,24.2,1111122 
NERRS,ioos:station:NOAA.NERRS:gndbcwq:1,2015-10-07T05:00:00Z,30.3836,-88.4364,0.6,24.3,1111122 
NERRS,ioos:station:NOAA.NERRS:gndbcwq:1,2015-10-07T06:00:00Z,30.3836,-88.4364,0.6,24.6,1111122 
NERRS,ioos:station:NOAA.NERRS:gndbcwq:1,2015-10-07T07:00:00Z,30.3836,-88.4364,0.62,25.1,1111122 
NERRS,ioos:station:NOAA.NERRS:gndbcwq:1,2015-10-07T08:00:00Z,30.3836,-88.4364,0.66,24.9,1111122 
NERRS,ioos:station:NOAA.NERRS:gndbcwq:1,2015-10-07T09:00:00Z,30.3836,-88.4364,0.7,25.8,1111122 
NERRS,ioos:station:NOAA.NERRS:gndbcwq:1,2015-10-07T10:00:00Z,30.3836,-88.4364,0.71,25.8,1111122 
NERRS,ioos:station:NOAA.NERRS:gndbcwq:1,2015-10-07T11:00:00Z,30.3836,-88.4364,0.7,26.7,1111122 
NERRS,ioos:station:NOAA.NERRS:gndbcwq:1,2015-10-07T12:00:00Z,30.3836,-88.4364,0.67,24.4,1111122 
NERRS,ioos:station:NOAA.NERRS:gndbcwq:1,2015-10-07T13:00:00Z,30.3836,-88.4364,0.66,25.0,1111122 
NERRS,ioos:station:NOAA.NERRS:gndbcwq:1,2015-10-07T14:00:00Z,30.3836,-88.4364,0.67,25.6,1111122 
NERRS,ioos:station:NOAA.NERRS:gndbcwq:1,2015-10-07T18:00:00Z,30.3836,-88.4364,0.49,23.9,1111122 
NERRS,ioos:station:NOAA.NERRS:gndbcwq:1,2015-10-07T19:00:00Z,30.3836,-88.4364,0.46,23.6,1111122 
NERRS,ioos:station:NOAA.NERRS:gndbcwq:1,2015-10-07T20:00:00Z,30.3836,-88.4364,0.47,22.0,1111122 
NERRS,ioos:station:NOAA.NERRS:gndbcwq:1,2015-10-07T21:00:00Z,30.3836,-88.4364,0.5,21.8,1111122 
NERRS,ioos:station:NOAA.NERRS:gndbcwq:1,2015-10-07T22:00:00Z,30.3836,-88.4364,0.52,22.6,1111122 
NERRS,ioos:station:NOAA.NERRS:gndbcwq:1,2015-10-07T23:00:00Z,30.3836,-88.4364,0.53,22.8,1111122 
NERRS,ioos:station:NOAA.NERRS:gndbcwq:1,2015-10-08T00:00:00Z,30.3836,-88.4364,0.54,23.0,1111122 
NERRS,ioos:station:NOAA.NERRS:gndbcwq:1,2015-10-08T01:00:00Z,30.3836,-88.4364,0.58,23.2,1111122 
NERRS,ioos:station:NOAA.NERRS:gndbcwq:1,2015-10-08T02:00:00Z,30.3836,-88.4364,0.63,23.4,1111122 
NERRS,ioos:station:NOAA.NERRS:gndbcwq:1,2015-10-08T03:00:00Z,30.3836,-88.4364,0.67,23.8,1111122 
NERRS,ioos:station:NOAA.NERRS:gndbcwq:1,2015-10-08T04:00:00Z,30.3836,-88.4364,0.68,25.3,1111122 
NERRS,ioos:station:NOAA.NERRS:gndbcwq:1,2015-10-08T05:00:00Z,30.3836,-88.4364,0.67,25.0,1111122 
NERRS,ioos:station:NOAA.NERRS:gndbcwq:1,2015-10-08T06:00:00Z,30.3836,-88.4364,0.65,24.0,1111122 
NERRS,ioos:station:NOAA.NERRS:gndbcwq:1,2015-10-08T07:00:00Z,30.3836,-88.4364,0.66,26.3,1111122 
NERRS,ioos:station:NOAA.NERRS:gndbcwq:1,2015-10-08T08:00:00Z,30.3836,-88.4364,0.69,26.1,1111122 
NERRS,ioos:station:NOAA.NERRS:gndbcwq:1,2015-10-08T09:00:00Z,30.3836,-88.4364,0.72,25.5,1111122 
NERRS,ioos:station:NOAA.NERRS:gndbcwq:1,2015-10-08T10:00:00Z,30.3836,-88.4364,0.75,26.0,1111122 
NERRS,ioos:station:NOAA.NERRS:gndbcwq:1,2015-10-08T11:00:00Z,30.3836,-88.4364,0.74,26.8,1111122 
NERRS,ioos:station:NOAA.NERRS:gndbcwq:1,2015-10-08T12:00:00Z,30.3836,-88.4364,0.72,26.7,1111122 
NERRS,ioos:station:NOAA.NERRS:gndbcwq:1,2015-10-08T13:00:00Z,30.3836,-88.4364,0.72,26.3,1111122 
NERRS,ioos:station:NOAA.NERRS:gndbcwq:1,2015-10-08T14:00:00Z,30.3836,-88.4364,0.73,27.0,1111122 
NERRS,ioos:station:NOAA.NERRS:gndbcwq:1,2015-10-08T15:00:00Z,30.3836,-88.4364,0.73,26.5,1111122 
NERRS,ioos:station:NOAA.NERRS:gndbcwq:1,2015-10-08T16:00:00Z,30.3836,-88.4364,0.7,25.9,1111122 
NERRS,ioos:station:NOAA.NERRS:gndbcwq:1,2015-10-08T17:00:00Z,30.3836,-88.4364,0.64,25.1,1111122 
NERRS,ioos:station:NOAA.NERRS:gndbcwq:1,2015-10-08T18:00:00Z,30.3836,-88.4364,0.58,25.0,1111122 
NERRS,ioos:station:NOAA.NERRS:gndbcwq:1,2015-10-08T19:00:00Z,30.3836,-88.4364,0.56,24.0,1111122 
NERRS,ioos:station:NOAA.NERRS:gndbcwq:1,2015-10-08T20:00:00Z,30.3836,-88.4364,0.56,23.9,1111122 
NERRS,ioos:station:NOAA.NERRS:gndbcwq:1,2015-10-08T21:00:00Z,30.3836,-88.4364,0.6,24.1,1111122 
NERRS,ioos:station:NOAA.NERRS:gndbcwq:1,2015-10-08T22:00:00Z,30.3836,-88.4364,0.61,23.8,1111122 
NERRS,ioos:station:NOAA.NERRS:gndbcwq:1,2015-10-08T23:00:00Z,30.3836,-88.4364,0.63,23.4,1111122 
NERRS,ioos:station:NOAA.NERRS:gndbcwq:1,2015-10-09T00:00:00Z,30.3836,-88.4364,0.65,24.0,1111122 
NERRS,ioos:station:NOAA.NERRS:gndbcwq:1,2015-10-09T01:00:00Z,30.3836,-88.4364,0.66,24.4,1111122 
NERRS,ioos:station:NOAA.NERRS:gndbcwq:1,2015-10-09T02:00:00Z,30.3836,-88.4364,0.69,24.7,1111122 
NERRS,ioos:station:NOAA.NERRS:gndbcwq:1,2015-10-09T03:00:00Z,30.3836,-88.4364,0.73,24.8,1111122 
NERRS,ioos:station:NOAA.NERRS:gndbcwq:1,2015-10-09T04:00:00Z,30.3836,-88.4364,0.75,25.1,1111122 
NERRS,ioos:station:NOAA.NERRS:gndbcwq:1,2015-10-09T05:00:00Z,30.3836,-88.4364,0.74,25.6,1111122 
NERRS,ioos:station:NOAA.NERRS:gndbcwq:1,2015-10-09T06:00:00Z,30.3836,-88.4364,0.71,24.4,1111122 
NERRS,ioos:station:NOAA.NERRS:gndbcwq:1,2015-10-09T07:00:00Z,30.3836,-88.4364,0.68,23.8,1111122 
NERRS,ioos:station:NOAA.NERRS:gndbcwq:1,2015-10-09T08:00:00Z,30.3836,-88.4364,0.68,24.9,1111122 
NERRS,ioos:station:NOAA.NERRS:gndbcwq:1,2015-10-09T09:00:00Z,30.3836,-88.4364,0.72,25.1,1111122 
NERRS,ioos:station:NOAA.NERRS:gndbcwq:1,2015-10-09T10:00:00Z,30.3836,-88.4364,0.76,25.7,1111122 
NERRS,ioos:station:NOAA.NERRS:gndbcwq:1,2015-10-09T11:00:00Z,30.3836,-88.4364,0.79,26.0,1111122 
NERRS,ioos:station:NOAA.NERRS:gndbcwq:1,2015-10-09T12:00:00Z,30.3836,-88.4364,0.81,26.9,1111122 
NERRS,ioos:station:NOAA.NERRS:gndbcwq:1,2015-10-09T13:00:00Z,30.3836,-88.4364,0.81,27.2,1111122 
NERRS,ioos:station:NOAA.NERRS:gndbcwq:1,2015-10-09T14:00:00Z,30.3836,-88.4364,0.81,27.4,1111122 
NERRS,ioos:station:NOAA.NERRS:gndbcwq:1,2015-10-09T15:00:00Z,30.3836,-88.4364,0.81,27.8,1111122 
NERRS,ioos:station:NOAA.NERRS:gndbcwq:1,2015-10-09T16:00:00Z,30.3836,-88.4364,0.8,27.9,1111122 
NERRS,ioos:station:NOAA.NERRS:gndbcwq:1,2015-10-09T17:00:00Z,30.3836,-88.4364,0.78,27.5,1111122 
NERRS,ioos:station:NOAA.NERRS:gndbcwq:1,2015-10-09T18:00:00Z,30.3836,-88.4364,0.72,24.0,1111122 
NERRS,ioos:station:NOAA.NERRS:gndbcwq:1,2015-10-09T19:00:00Z,30.3836,-88.4364,0.67,25.1,1111122 
NERRS,ioos:station:NOAA.NERRS:gndbcwq:1,2015-10-09T20:00:00Z,30.3836,-88.4364,0.63,24.9,1111122 
NERRS,ioos:station:NOAA.NERRS:gndbcwq:1,2015-10-09T21:00:00Z,30.3836,-88.4364,0.64,24.8,1111122 
NERRS,ioos:station:NOAA.NERRS:gndbcwq:1,2015-10-09T22:00:00Z,30.3836,-88.4364,0.66,24.4,1111122 
NERRS,ioos:station:NOAA.NERRS:gndbcwq:1,2015-10-11T00:00:00Z,30.3836,-88.4364,0.62,24.1,1111122 
NERRS,ioos:station:NOAA.NERRS:gndbcwq:1,2015-10-11T01:00:00Z,30.3836,-88.4364,0.63,24.4,1111122 
NERRS,ioos:station:NOAA.NERRS:gndbcwq:1,2015-10-11T02:00:00Z,30.3836,-88.4364,0.62,22.9,1111122 
NERRS,ioos:station:NOAA.NERRS:gndbcwq:1,2015-10-11T03:00:00Z,30.3836,-88.4364,0.58,21.0,1111122 
NERRS,ioos:station:NOAA.NERRS:gndbcwq:1,2015-10-11T04:00:00Z,30.3836,-88.4364,0.65,23.4,1111122 
NERRS,ioos:station:NOAA.NERRS:gndbcwq:1,2015-10-11T05:00:00Z,30.3836,-88.4364,0.68,23.7,1111122 
NERRS,ioos:station:NOAA.NERRS:gndbcwq:1,2015-10-11T06:00:00Z,30.3836,-88.4364,0.69,24.7,1111122 
NERRS,ioos:station:NOAA.NERRS:gndbcwq:1,2015-10-11T07:00:00Z,30.3836,-88.4364,0.67,24.4,1111122 
NERRS,ioos:station:NOAA.NERRS:gndbcwq:1,2015-10-11T08:00:00Z,30.3836,-88.4364,0.59,24.8,1111122 
NERRS,ioos:station:NOAA.NERRS:gndbcwq:1,2015-10-11T09:00:00Z,30.3836,-88.4364,0.54,22.6,1111122 
NERRS,ioos:station:NOAA.NERRS:gndbcwq:1,2015-10-11T10:00:00Z,30.3836,-88.4364,0.55,22.6,1111122 
NERRS,ioos:station:NOAA.NERRS:gndbcwq:1,2015-10-11T11:00:00Z,30.3836,-88.4364,0.58,23.6,1111122 
NERRS,ioos:station:NOAA.NERRS:gndbcwq:1,2015-10-11T12:00:00Z,30.3836,-88.4364,0.59,23.4,1111122 
NERRS,ioos:station:NOAA.NERRS:gndbcwq:1,2015-10-11T13:00:00Z,30.3836,-88.4364,0.59,23.0,1111122 
NERRS,ioos:station:NOAA.NERRS:gndbcwq:1,2015-10-11T14:00:00Z,30.3836,-88.4364,0.62,23.3,1111122 
NERRS,ioos:station:NOAA.NERRS:gndbcwq:1,2015-10-11T15:00:00Z,30.3836,-88.4364,0.65,24.1,1111122 
NERRS,ioos:station:NOAA.NERRS:gndbcwq:1,2015-10-11T16:00:00Z,30.3836,-88.4364,0.68,24.2,1111122 
NERRS,ioos:station:NOAA.NERRS:gndbcwq:1,2015-10-11T17:00:00Z,30.3836,-88.4364,0.68,24.5,1111122 
NERRS,ioos:station:NOAA.NERRS:gndbcwq:1,2015-10-11T18:00:00Z,30.3836,-88.4364,0.66,24.5,1111122 
NERRS,ioos:station:NOAA.NERRS:gndbcwq:1,2015-10-11T19:00:00Z,30.3836,-88.4364,0.62,23.4,1111122 
NERRS,ioos:station:NOAA.NERRS:gndbcwq:1,2015-10-11T20:00:00Z,30.3836,-88.4364,0.58,21.9,1111122 
NERRS,ioos:station:NOAA.NERRS:gndbcwq:1,2015-10-11T21:00:00Z,30.3836,-88.4364,0.56,24.0,1111122 
NERRS,ioos:station:NOAA.NERRS:gndbcwq:1,2015-10-11T22:00:00Z,30.3836,-88.4364,0.59,23.2,1111122 
NERRS,ioos:station:NOAA.NERRS:gndbcwq:1,2015-10-11T23:00:00Z,30.3836,-88.4364,0.62,23.6,1111122 
NERRS,ioos:station:NOAA.NERRS:gndbcwq:1,2015-10-12T00:00:00Z,30.3836,-88.4364,0.65,24.4,1111122 
NERRS,ioos:station:NOAA.NERRS:gndbcwq:1,2015-10-12T01:00:00Z,30.3836,-88.4364,0.67,24.5,1111122 
NERRS,ioos:station:NOAA.NERRS:gndbcwq:1,2015-10-12T02:00:00Z,30.3836,-88.4364,0.68,24.8,1111122 
NERRS,ioos:station:NOAA.NERRS:gndbcwq:1,2015-10-12T03:00:00Z,30.3836,-88.4364,0.67,24.7,1111122 
NERRS,ioos:station:NOAA.NERRS:gndbcwq:1,2015-10-12T04:00:00Z,30.3836,-88.4364,0.67,24.9,1111122 
NERRS,ioos:station:NOAA.NERRS:gndbcwq:1,2015-10-12T05:00:00Z,30.3836,-88.4364,0.65,24.7,1111122 
NERRS,ioos:station:NOAA.NERRS:gndbcwq:1,2015-10-12T07:00:00Z,30.3836,-88.4364,0.56,22.0,1111122 
NERRS,ioos:station:NOAA.NERRS:gndbcwq:1,2015-10-12T08:00:00Z,30.3836,-88.4364,0.53,22.5,1111122 
NERRS,ioos:station:NOAA.NERRS:gndbcwq:1,2015-10-12T09:00:00Z,30.3836,-88.4364,0.51,21.9,1111122 
NERRS,ioos:station:NOAA.NERRS:gndbcwq:1,2015-10-12T10:00:00Z,30.3836,-88.4364,0.51,23.5,1111122 
NERRS,ioos:station:NOAA.NERRS:gndbcwq:1,2015-10-12T11:00:00Z,30.3836,-88.4364,0.55,24.1,1111122 
NERRS,ioos:station:NOAA.NERRS:gndbcwq:1,2015-10-12T12:00:00Z,30.3836,-88.4364,0.59,24.1,1111122 
NERRS,ioos:station:NOAA.NERRS:gndbcwq:1,2015-10-12T13:00:00Z,30.3836,-88.4364,0.63,24.9,1111122 
NERRS,ioos:station:NOAA.NERRS:gndbcwq:1,2015-10-12T14:00:00Z,30.3836,-88.4364,0.65,25.1,1111122 
NERRS,ioos:station:NOAA.NERRS:gndbcwq:1,2015-10-12T15:00:00Z,30.3836,-88.4364,0.66,25.3,1111122 